Location: Staunton
(38.1490°N, 79.0720°W)
Time: 11:47:32
(UTC-04:00)

ISS - Pass Details

Date: 29 May 2020
Orbit: 417 x 420 km, 51.6° (Epoch: 26 May)

Event Time Altitude Azimuth Distance (km) Brightness Sun altitude
Rises 20:58:38 0° 318° (NW) 2,363 1.9 -5.3°
Reaches altitude 10° 21:02:16 10° 359° (N) 1,499 -0.4 -5.9°
Maximum altitude 21:03:06 11° 14° (NNE) 1,456 -0.7 -6.0°
Drops below altitude 10° 21:03:57 10° 28° (NNE) 1,498 -0.9 -6.2°
Sets 21:07:34 0° 69° (ENE) 2,361 -0.3 -6.8°
